When you browse on this site, cookies collect data to enhance your experience and personalize the content and advertising you see.
Visit our Privacy Policy to learn more. By continuing to use the site, you agree to this use of cookies and data.
  • Em Portugal
  • Lista de países
  • Para 7 dias
  • Temperatura da água
  • Mapas de satélite
  • Mapa do tempo
  • Widgets de tempo
  • user-avatar
    Iniciar Sessão

    Previsão horária em Kotyatino

    Hoje, 22 Abril, Segunda-feira

    Tempo Temperatura Precipitação Vento Pressão Humidade
    00:00 +6°C° 0 mm 2 m/s 764 mmHg 67%
    01:00 +7°C° 0 mm 1 m/s 764 mmHg 68%
    02:00 +7°C° 0 mm 1 m/s 764 mmHg 69%
    03:00 +7°C° 0 mm 1 m/s 765 mmHg 70%
    04:00 +6°C° 0 mm 1 m/s 765 mmHg 71%
    05:00 +6°C° 0 mm 1 m/s 765 mmHg 72%
    06:00 +8°C° 0 mm 1 m/s 765 mmHg 66%
    07:00 +10°C° 0 mm 1 m/s 765 mmHg 61%
    08:00 +12°C° 0 mm 1 m/s 765 mmHg 55%
    09:00 +14°C° 0 mm 2 m/s 766 mmHg 50%
    10:00 +16°C° 0 mm 2 m/s 766 mmHg 44%
    11:00 +18°C° 0 mm 2 m/s 766 mmHg 38%
    12:00 +18°C° 0 mm 2 m/s 766 mmHg 36%
    13:00 +19°C° 0 mm 2 m/s 765 mmHg 34%
    14:00 +19°C° 0 mm 2 m/s 765 mmHg 32%
    15:00 +19°C° 0 mm 2 m/s 765 mmHg 33%
    16:00 +19°C° 0 mm 2 m/s 765 mmHg 33%
    17:00 +18°C° 0 mm 2 m/s 765 mmHg 34%
    18:00 +17°C° 0 mm 2 m/s 765 mmHg 40%
    19:00 +15°C° 0 mm 2 m/s 765 mmHg 46%
    20:00 +13°C° 0 mm 2 m/s 765 mmHg 53%
    21:00 +12°C° 0 mm 2 m/s 766 mmHg 55%
    22:00 +10°C° 0 mm 2 m/s 766 mmHg 58%
    23:00 +9°C° 0 mm 2 m/s 766 mmHg 61%

    Amanhã, 23 Abril, Terça-feira

    Tempo Temperatura Precipitação Vento Pressão Humidade
    00:00 +9°C° 0 mm 2 m/s 767 mmHg 62%
    01:00 +9°C° 0 mm 2 m/s 767 mmHg 63%
    02:00 +8°C° 0 mm 2 m/s 767 mmHg 65%
    03:00 +8°C° 0 mm 2 m/s 767 mmHg 67%
    04:00 +7°C° 0 mm 2 m/s 767 mmHg 69%
    05:00 +7°C° 0 mm 2 m/s 767 mmHg 71%
    06:00 +9°C° 0 mm 2 m/s 767 mmHg 66%
    07:00 +12°C° 0 mm 1 m/s 768 mmHg 61%
    08:00 +14°C° 0 mm 1 m/s 768 mmHg 56%
    09:00 +15°C° 0 mm 2 m/s 768 mmHg 50%
    10:00 +17°C° 0 mm 2 m/s 768 mmHg 44%
    11:00 +18°C° 0 mm 2 m/s 768 mmHg 38%
    12:00 +18°C° 0 mm 2 m/s 767 mmHg 36%
    13:00 +19°C° 0 mm 2 m/s 767 mmHg 34%
    14:00 +19°C° 0 mm 2 m/s 767 mmHg 31%
    15:00 +20°C° 0 mm 1 m/s 767 mmHg 32%
    16:00 +20°C° 0 mm 1 m/s 767 mmHg 32%
    17:00 +20°C° 0 mm 1 m/s 766 mmHg 32%
    18:00 +18°C° 0 mm 1 m/s 766 mmHg 37%
    19:00 +15°C° 0 mm 1 m/s 766 mmHg 42%
    20:00 +13°C° 0 mm 1 m/s 767 mmHg 48%
    21:00 +13°C° 0 mm 1 m/s 767 mmHg 49%
    22:00 +12°C° 0 mm 1 m/s 767 mmHg 51%
    23:00 +11°C° 0 mm 1 m/s 767 mmHg 52%

    Depois de amanhã, 24 Abril, Quarta-feira

    Tempo Temperatura Precipitação Vento Pressão Humidade
    00:00 +11°C° 0 mm 1 m/s 767 mmHg 55%
    01:00 +10°C° 0 mm 1 m/s 767 mmHg 57%
    02:00 +9°C° 0 mm 0 m/s 767 mmHg 60%
    03:00 +8°C° 0 mm 0 m/s 767 mmHg 61%
    04:00 +8°C° 0 mm 0 m/s 767 mmHg 62%
    05:00 +8°C° 0 mm 0 m/s 767 mmHg 62%
    06:00 +10°C° 0 mm 0 m/s 767 mmHg 57%
    07:00 +13°C° 0 mm 1 m/s 768 mmHg 51%
    08:00 +15°C° 0 mm 1 m/s 768 mmHg 46%
    09:00 +18°C° 0 mm 1 m/s 767 mmHg 42%
    10:00 +19°C° 0 mm 1 m/s 767 mmHg 38%
    11:00 +20°C° 0 mm 2 m/s 767 mmHg 34%
    12:00 +20°C° 0 mm 2 m/s 767 mmHg 33%
    13:00 +20°C° 0 mm 2 m/s 767 mmHg 32%
    14:00 +21°C° 0 mm 2 m/s 766 mmHg 32%
    15:00 +21°C° 0 mm 2 m/s 766 mmHg 33%
    16:00 +20°C° 0 mm 2 m/s 766 mmHg 34%
    17:00 +20°C° 0 mm 2 m/s 765 mmHg 34%
    18:00 +18°C° 0 mm 2 m/s 765 mmHg 40%
    19:00 +18°C° 0 mm 1 m/s 765 mmHg 46%
    20:00 +15°C° 0 mm 1 m/s 765 mmHg 52%
    21:00 +14°C° 0 mm 1 m/s 765 mmHg 54%
    22:00 +13°C° 0 mm 1 m/s 765 mmHg 57%
    23:00 +12°C° 0 mm 1 m/s 766 mmHg 59%

    25 Abril, Quinta-feira

    Tempo Temperatura Precipitação Vento Pressão Humidade
    00:00 +12°C° 0 mm 1 m/s 766 mmHg 61%
    01:00 +12°C° 0 mm 1 m/s 766 mmHg 62%
    02:00 +11°C° 0 mm 1 m/s 766 mmHg 63%
    03:00 +11°C° 0 mm 1 m/s 766 mmHg 65%
    04:00 +10°C° 0 mm 1 m/s 766 mmHg 66%
    05:00 +9°C° 0 mm 2 m/s 765 mmHg 67%
    06:00 +12°C° 0 mm 2 m/s 765 mmHg 63%
    07:00 +13°C° 0 mm 2 m/s 765 mmHg 58%
    08:00 +15°C° 0 mm 2 m/s 765 mmHg 53%
    09:00 +17°C° 0 mm 3 m/s 765 mmHg 48%
    10:00 +18°C° 0 mm 3 m/s 765 mmHg 42%
    11:00 +20°C° 0 mm 4 m/s 765 mmHg 37%
    12:00 +20°C° 0 mm 4 m/s 764 mmHg 36%
    13:00 +21°C° 0 mm 4 m/s 764 mmHg 35%
    14:00 +21°C° 0 mm 4 m/s 764 mmHg 34%
    15:00 +21°C° 0 mm 4 m/s 763 mmHg 35%
    16:00 +21°C° 0 mm 4 m/s 763 mmHg 36%
    17:00 +21°C° 0 mm 3 m/s 762 mmHg 36%
    18:00 +19°C° 0 mm 3 m/s 762 mmHg 43%
    19:00 +17°C° 0 mm 2 m/s 762 mmHg 49%
    20:00 +15°C° 0 mm 2 m/s 762 mmHg 55%
    21:00 +14°C° 0 mm 2 m/s 762 mmHg 58%
    22:00 +14°C° 0 mm 2 m/s 762 mmHg 60%
    23:00 +13°C° 0 mm 2 m/s 761 mmHg 63%

    26 Abril, Sexta-feira

    Tempo Temperatura Precipitação Vento Pressão Humidade
    00:00 +13°C° 0 mm 2 m/s 761 mmHg 64%
    01:00 +13°C° 0 mm 2 m/s 761 mmHg 65%
    02:00 +12°C° 0 mm 2 m/s 761 mmHg 66%
    03:00 +12°C° 0 mm 2 m/s 760 mmHg 69%
    04:00 +10°C° 0 mm 2 m/s 760 mmHg 72%
    05:00 +10°C° 0 mm 2 m/s 760 mmHg 75%
    06:00 +12°C° 0 mm 2 m/s 760 mmHg 70%
    07:00 +14°C° 0 mm 2 m/s 759 mmHg 65%
    08:00 +14°C° 0 mm 3 m/s 759 mmHg 60%
    09:00 +17°C° 0 mm 3 m/s 759 mmHg 55%
    10:00 +19°C° 0 mm 3 m/s 758 mmHg 50%
    11:00 +21°C° 0 mm 3 m/s 758 mmHg 44%
    12:00 +21°C° 0 mm 3 m/s 758 mmHg 43%
    13:00 +22°C° 0 mm 3 m/s 757 mmHg 42%
    14:00 +24°C° 0 mm 3 m/s 757 mmHg 40%
    15:00 +24°C° 0 mm 2 m/s 757 mmHg 41%
    16:00 +24°C° 0 mm 2 m/s 756 mmHg 42%
    17:00 +23°C° 0 mm 2 m/s 756 mmHg 43%
    18:00 +21°C° 0 mm 2 m/s 756 mmHg 49%
    19:00 +19°C° 0 mm 2 m/s 756 mmHg 56%
    20:00 +18°C° 0 mm 1 m/s 756 mmHg 63%
    21:00 +16°C° 0 mm 2 m/s 756 mmHg 65%
    22:00 +16°C° 0 mm 2 m/s 756 mmHg 68%
    23:00 +15°C° 0 mm 2 m/s 756 mmHg 70%

    27 Abril, Sábado

    Tempo Temperatura Precipitação Vento Pressão Humidade
    00:00 +14°C° 0 mm 2 m/s 756 mmHg 73%
    01:00 +14°C° 0 mm 2 m/s 756 mmHg 75%
    02:00 +13°C° 0 mm 2 m/s 756 mmHg 77%
    03:00 +13°C° 0 mm 2 m/s 756 mmHg 78%
    04:00 +13°C° 0 mm 2 m/s 756 mmHg 80%
    05:00 +13°C° 0 mm 2 m/s 756 mmHg 81%
    06:00 +14°C° 0 mm 2 m/s 755 mmHg 74%
    07:00 +16°C° 0 mm 3 m/s 755 mmHg 68%
    08:00 +17°C° 0 mm 3 m/s 755 mmHg 61%
    09:00 +18°C° 0.2 mm 3 m/s 755 mmHg 61%
    10:00 +18°C° 0.2 mm 3 m/s 755 mmHg 61%
    11:00 +19°C° 0.2 mm 3 m/s 754 mmHg 61%
    12:00 +19°C° 0.3 mm 3 m/s 754 mmHg 66%
    13:00 +18°C° 0.3 mm 4 m/s 754 mmHg 71%
    14:00 +18°C° 0.3 mm 4 m/s 754 mmHg 75%
    15:00 +19°C° 0.2 mm 3 m/s 753 mmHg 73%
    16:00 +19°C° 0.2 mm 3 m/s 753 mmHg 70%
    17:00 +20°C° 0.2 mm 3 m/s 753 mmHg 67%
    18:00 +19°C° 0.8 mm 3 m/s 753 mmHg 73%
    19:00 +18°C° 0.8 mm 3 m/s 752 mmHg 79%
    20:00 +17°C° 0.8 mm 3 m/s 752 mmHg 86%
    21:00 +17°C° 0.3 mm 3 m/s 752 mmHg 89%
    22:00 +16°C° 0.3 mm 3 m/s 752 mmHg 92%
    23:00 +16°C° 0.3 mm 3 m/s 752 mmHg 95%
    Mostrar mais